sat.trackr.live / text

‹ back to catalog

YAHSAT 1B

NORAD 38245 · 2012-016A

PAYLOAD ACTIVE UNKNOWN

§ Identity

Operator
Country
UAE
Launch date
2012-04-23
Launch site
TYMSC
Launch vehicle
Mass (kg)
RCS (m²)
10.00

Purposes: comms

External: N2YO · Heavens-Above · Gunter

§ Orbital elements

Epoch: 2026-09-10T02:15:16.934400Z

Period
1,436.12 min
Inclination
0.1005°
Eccentricity
0.0001440
Mean motion
1.00270203 rev/d
Perigee alt
35,781.0 km
Apogee alt
35,793.1 km
Semi-major
42,165.2 km
B*
0.0000e+0
RAAN
89.2514°
Arg perigee
77.0767°
Mean anomaly
264.2229°
Rev number
4,645

§ Raw data

YAHSAT 1B1 38245U 12016A   26253.09394600  .00000106  00000+0  00000+0 0  99962 38245   0.1005  89.2514 0001440  77.0767 264.2229  1.00270203 46453

JSON: /api/v1/satellites/38245 · /tle

For live sub-satellite position, see the globe view (requires WebGL).

§ Visibility from observer

Set your observer location to see the next 7 days of passes ≥ 10°. The values pass through the URL so the page stays shareable.

No JS? Fill the form by hand. The geolocation button needs JavaScript.